星链-35373(STARLINK-35373)

导读

STARLINK-35373是美国于2025年9月26日发射的星链卫星,隶属于SpaceX公司的星链星座项目。星链计划旨在构建全球卫星互联网星座,为全球范围提供高速低延迟的互联网接入服务,该卫星入轨后将进一步扩充星链星座规模,提升全球网络覆盖能力,推动全球互联基础设施建设。

Basic Information
目录编号:
65792
目录名称:
STARLINK-35373
国际标识:
2025-218B
轨道中心:
EARTH
卫星名称:
星链-35373
卫星全名:
星链-35373(STARLINK-35373)
卫星状态:
在轨 (已飞行260 天)
发射日期:
2025-09-26 UTC
国别 :
美国 (US)
星等 :
--
Orbit Information
数据来源 国际轨道数据 AOE轨道数据
星历时间 2026-06-13T11:29:24+0800
10小时前
查看轨道信息
2026-06-10T09:00:00+0800
3天前
查看轨道信息
半长轴 6927.554km 6927.66km
偏心率 0.0002825 0.0001545
轨道倾角 97.367° 97.385°
近地点辐角 71.270° 72.307°
升交点赤经 26.190° 23.220°
平近点角 288.884° 35.060°
近地点 547.459km 548.452km
远地点 551.375km 550.594km
周期 95.638分钟 95.640分钟
每日圈数 15.05681 15.056464
Detailed Information
固有亮度:
5
最大亮度:
2.5
卫星平台:
Starlink V1.0
覆盖范围:
全球
运营商:
太空探索技术公司
运营商所在国:
美国
制造商(研发单位):
太空探索技术公司
制造商所在国:
美国
使用方式:
暂无
Satellite Introduction
Starlink 计划是 SpaceX 推出的全球卫星互联网项目,通过发射低轨道卫星,为全球尤其是偏远地区提供高速、低延迟的互联网服务。自 2019 年起,Starlink 已部署数千颗卫星,旨在缩小全球数字鸿沟,推动互联网普及。该项目还为军事、航空等行业提供通信支持,带来广泛经济效益。
2D Orbit Map
3D Orbit Map
Orbit Altitude Analysis Chart
Orbit Inclination Analysis Chart
Orbit Comprehensive Analysis Chart
View Comprehensive Chart